This demonstration page uses our WeatherBlox Daily Observations layout. Learn more.

Left ArrowRight Arrow

Hourly Observations for May 10, 2020

Temp ( °F °C ) Dew Point ( °F °C ) Humidity (%) Winds ( mph kmh ) Pressure ( in mb ) Visibility ( mi km ) Precip ( " mm )
12:15 am 00:15 Clear 40 4.3 29 -1.9 64 64 NNW 10 17 30.4 1029 10 16.0934 0 0
12:35 am 00:35 Clear 39 4 28 -2 65 65 N 12 19 30.4 1029 10 16.0934 0 0
12:55 am 00:55 Clear 38 3.2 28 -2 69 69 N 9 15 30.42 1030 10 16.0934 0 0
1:15 am 01:15 Clear 38 3.5 28 -2.2 67 67 N 12 19 30.41 1030 10 16.0934 0 0
1:55 am 01:55 Clear 37 2.7 28 -2.5 69 69 N 10 17 30.42 1030 10 16.0934 0 0
2:15 am 02:15 Clear 36 2 28 -2.5 72 72 N 8 13 30.43 1030 10 16.0934 0 0
2:35 am 02:35 Clear 35 1.6 28 -2.3 76 76 NNW 9 15 30.43 1030 10 16.0934 0 0
2:55 am 02:55 Clear 34 1.3 28 -2.5 76 76 NNW 7 11 30.43 1031 10 16.0934 0 0
3:15 am 03:15 Clear 34 1.2 27 -2.6 76 76 N 9 15 30.44 1031 10 16.0934 0 0
3:35 am 03:35 Clear 34 1.2 27 -2.7 76 76 NNW 9 15 30.43 1031 10 16.0934 0 0
3:55 am 03:55 Clear 32 0.2 27 -3 79 79 NW 7 11 30.44 1031 10 16.0934 0 0
4:15 am 04:15 Clear 32 0 26 -3.1 80 80 NW 7 11 30.46 1031 10 16.0934 0 0
4:35 am 04:35 Clear 32 -0.1 27 -3 81 81 NNW 7 11 30.46 1031 10 16.0934 0 0
4:55 am 04:55 Clear 32 0 27 -3 80 80 NNW 10 17 30.46 1031 10 16.0934 0 0
5:15 am 05:15 Clear 32 0 26 -3.1 80 80 NNW 8 13 30.46 1031 10 16.0934 0 0
5:35 am 05:35 Clear 32 0 26 -3.4 78 78 NNW 9 15 30.46 1031 10 16.0934 0 0
5:55 am 05:55 Clear 32 -0.2 26 -3.5 79 79 NW 8 13 30.47 1032 10 16.0934 0 0
6:15 am 06:15 Clear 31 -0.5 26 -3.4 81 81 NW 7 11 30.47 1032 10 16.0934 0 0
6:35 am 06:35 Sunny 31 -0.7 26 -3.4 82 82 NW 7 11 30.48 1032 10 16.0934 0 0
6:55 am 06:55 Sunny 31 -0.8 26 -3.2 84 84 WNW 8 13 30.48 1032 10 16.0934 0 0
7:15 am 07:15 Partly Cloudy 32 0 27 -2.8 82 82 NW 6 9 30.49 1032 10 16.0934 0 0
7:35 am 07:35 Partly Cloudy 34 1 28 -2.5 78 78 NW 9 15 30.48 1032 10 16.0934 0 0
7:55 am 07:55 Sunny 35 1.8 27 -2.6 73 73 NNW 10 17 30.47 1032 10 16.0934 0 0
8:15 am 08:15 Sunny 37 2.8 27 -3 66 66 NNW 13 20 30.46 1031 10 16.0934 0 0
8:35 am 08:35 Sunny 38 3.3 27 -2.9 64 64 NNW 12 19 30.46 1032 10 16.0934 0 0
8:55 am 08:55 Sunny 38 3.5 26 -3.4 61 61 NNW 15 24 30.46 1032 10 16.0934 0 0
9:15 am 09:15 Sunny 39 3.7 26 -3.5 60 60 NNW 12 19 30.47 1032 10 16.0934 0 0
9:35 am 09:35 Partly Cloudy 41 4.8 27 -3 57 57 NNW 13 20 30.45 1031 10 16.0934 0 0
9:55 am 09:55 Partly Cloudy 40 4.6 26 -3.6 56 56 N 8 13 30.45 1031 10 16.0934 0 0
10:15 am 10:15 Sunny 43 5.9 27 -3 53 53 NNW 9 15 30.44 1031 10 16.0934 0 0
10:35 am 10:35 Sunny 43 6.2 26 -3.5 50 50 N 7 11 30.44 1031 10 16.0934 0 0
10:55 am 10:55 Sunny 45 7.3 26 -3.6 46 46 N 8 13 30.43 1030 10 16.0934 0 0
11:15 am 11:15 Sunny 46 7.7 26 -3.6 45 45 N 14 22 30.42 1030 10 16.0934 0 0
11:35 am 11:35 Sunny 47 8.4 27 -3 45 45 N 8 13 30.42 1030 10 16.0934 0 0
11:55 am 11:55 Sunny 48 9 26 -3.4 42 42 N 10 17 30.4 1030 10 16.0934 0 0
12:15 pm 12:15 Sunny 49 9.3 27 -2.8 43 43 NNW 10 17 30.4 1029 10 16.0934 0 0
12:35 pm 12:35 Sunny 49 9.7 27 -2.9 41 41 N 12 19 30.39 1029 10 16.0934 0 0
12:55 pm 12:55 Sunny 50 10 26 -3.3 39 39 NNW 12 19 30.38 1029 10 16.0934 0 0
1:15 pm 13:15 Sunny 51 10.7 27 -2.8 39 39 N 10 17 30.37 1028 10 16.0934 0 0
1:35 pm 13:35 Partly Cloudy 52 11 27 -3 38 38 NE 10 17 30.35 1028 10 16.0934 0 0
1:55 pm 13:55 Partly Cloudy 53 11.5 27 -2.7 37 37 NNW 8 13 30.35 1028 10 16.0934 0 0
2:15 pm 14:15 Mostly Cloudy 53 11.6 26 -3.2 36 36 N 12 19 30.34 1027 10 16.0934 0 0
2:35 pm 14:35 Mostly Cloudy 55 12.7 28 -2 36 36 NNE 9 15 30.33 1027 10 16.0934 0 0
2:55 pm 14:55 Cloudy 55 12.5 29 -1.6 38 38 N 9 15 30.33 1027 10 16.0934 0 0
3:15 pm 15:15 Partly Cloudy 55 12.6 29 -1.9 37 37 NNE 10 17 30.32 1027 10 16.0934 0 0
3:35 pm 15:35 Partly Cloudy 55 12.8 29 -1.8 37 37 NNE 5 7 30.32 1027 10 16.0934 0 0
3:55 pm 15:55 Mostly Cloudy 53 11.9 28 -2.1 38 38 N 15 24 30.33 1027 10 16.0934 0 0
4:15 pm 16:15 Partly Cloudy 56 13.4 29 -1.4 36 36 N 15 24 30.31 1027 10 16.0934 0 0
4:35 pm 16:35 Mostly Cloudy 57 13.8 29 -1.6 35 35 N 7 11 30.31 1026 10 16.0934 0 0
4:55 pm 16:55 Partly Cloudy 56 13.5 29 -1.9 35 35 N 12 19 30.3 1026 10 16.0934 0 0
5:15 pm 17:15 Mostly Cloudy 56 13.2 29 -1.8 36 36 N 12 19 30.29 1026 10 16.0934 0 0
5:35 pm 17:35 Cloudy 56 13.1 29 -1.4 37 37 NNE 16 26 30.3 1026 10 16.0934 0 0
5:55 pm 17:55 Cloudy 55 12.7 29 -1.4 38 38 N 10 17 30.31 1026 10 16.0934 0 0
6:15 pm 18:15 Cloudy 56 13.3 30 -1.1 37 37 N 12 19 30.3 1026 10 16.0934 0 0
6:35 pm 18:35 Cloudy 55 12.8 30 -1.2 38 38 N 13 20 30.31 1026 10 16.0934 0 0
6:55 pm 18:55 Cloudy 53 11.9 30 -1.1 41 41 NNE 16 26 30.32 1027 10 16.0934 0 0
7:15 pm 19:15 Cloudy 53 11.7 31 -0.7 43 43 NNE 16 26 30.32 1027 10 16.0934 0 0
7:35 pm 19:35 Cloudy 52 11 30 -1 44 44 NNE 13 20 30.32 1027 10 16.0934 0 0
7:55 pm 19:55 Cloudy 51 10.5 30 -1.1 45 45 NE 15 24 30.33 1027 10 16.0934 0 0
8:15 pm 20:15 Cloudy 50 10 29 -1.4 45 45 NNE 12 19 30.33 1027 10 16.0934 0 0
8:35 pm 20:35 Cloudy 50 9.8 29 -1.4 46 46 NNE 10 17 30.33 1027 10 16.0934 0 0
8:55 pm 20:55 Cloudy 49 9.5 30 -1.2 48 48 NE 8 13 30.35 1028 10 16.0934 0 0
9:15 pm 21:15 Cloudy 49 9.4 29 -1.4 47 47 NE 8 13 30.35 1028 10 16.0934 0 0
9:35 pm 21:35 Cloudy 49 9.2 30 -1.1 49 49 NNE 9 15 30.35 1028 10 16.0934 0 0
9:55 pm 21:55 Cloudy 48 9.1 30 -1 50 50 ENE 8 13 30.36 1028 10 16.0934 0 0
10:15 pm 22:15 Cloudy 48 8.8 30 -1.1 50 50 NE 9 15 30.37 1029 10 16.0934 0 0
10:35 pm 22:35 Cloudy 47 8.5 30 -1.2 51 51 NE 9 15 30.38 1029 10 16.0934 0 0
10:55 pm 22:55 Cloudy 47 8.2 30 -1.1 52 52 NE 7 11 30.39 1029 10 16.0934 0 0
11:15 pm 23:15 Cloudy 46 8 30 -0.9 54 54 ENE 6 9 30.39 1029 10 16.0934 0 0
11:35 pm 23:35 Cloudy 46 7.7 30 -1 54 54 NE 7 11 30.38 1029 10 16.0934 0 0
11:55 pm 23:55 Cloudy 45 7.4 30 -0.9 56 56 ENE 7 11 30.39 1029 10 16.0934 0 0

Powered by AerisWeather